Regional Weather Roundup
Issued by NWS

Home | Current Version | Previous Version | Text Only | Print | Product List | Glossary Off
Versions: 1 2 3 4 5 6 7 8 9 10 11 12 13 14 15 16 17 18 19 20 21 22 23 24 25 26 27 28 29 30 31 32 33 34 35 36 37 38 39 40 41 42 43 44 45 46 47 48 49 50

697
ASUS43 KIND 191000
RWRIN

WEATHER ROUNDUP FOR INDIANA
NATIONAL WEATHER SERVICE INDIANAPOLIS IN
600 AM EDT SAT AUG 19 2017

NOTE: "FAIR" INDICATES FEW OR NO CLOUDS BELOW 12,000 FEET WITH NO
SIGNIFICANT WEATHER AND/OR OBSTRUCTIONS TO VISIBILITY.

* - STATION DOES NOT REPORT WEATHER SUCH AS PRECIPITATION OR FOG.

+ - STATION NOT QUALITY CONTROLLED BY THE NATIONAL WEATHER SERVICE.
    USE DATA WITH CAUTION...ESPECIALLY DEWPOINT AND RELATIVE
    HUMIDITY OBSERVATIONS.

INZ001>003-010>013-019-020-191100-
NORTHWEST INDIANA

CITY           SKY/WX    TMP DP  RH WIND       PRES   REMARKS
GARY /AIRPORT/ PTCLDY    68  61  77 N7        29.91S
MICHIGAN CITY+ MOCLDY    63  63 100 CALM      29.91S
MONTICELLO +   PTCLDY    64  63  96 S3        29.91S
RENSSELAER +   CLEAR     63  57  82 CALM      29.90F

$$

LMZ046-743>745-191100-
SOUTHERN LAKE MICHIGAN

STATION/POSITION TIME  TEMP    WIND        PRES    WAVE
                       AIR SEA DIR/SP/G            HT
                 (UTC) (F)     (DEG/KT/KT) (MB)    (FT)
BURNS HARBOR     0940   70     340/  9/ 11 1012.9S
MICHIGAN CITY    0930   70     330/ 14/ 15   N/A
5NW MICH CITY    0950   71 74  350/ 10/ 12   N/A     3

$$

INZ004-005-014>016-021>024-191100-
NORTH CENTRAL INDIANA

CITY           SKY/WX    TMP DP  RH WIND       PRES   REMARKS
GOSHEN         CLEAR     63  60  90 CALM      29.89R FOG
PERU/GRISSOM   CLOUDY    67  67 100 W6        29.91R
SOUTH BEND     PTCLDY    62  62 100 W7        29.91R

$$

INZ006>009-017-018-025>027-191100-
NORTHEAST INDIANA

CITY           SKY/WX    TMP DP  RH WIND       PRES   REMARKS
FORT WAYNE     MOCLDY    65  63  93 S6        29.90S
KENDALLVILLE + PTCLDY    62  62 100 CALM      29.90R FOG

$$

INZ028-029-035-036-043>045-051>053-191100-
WEST CENTRAL INDIANA

CITY           SKY/WX    TMP DP  RH WIND       PRES   REMARKS
LAFAYETTE      PTCLDY    63  63 100 CALM      29.92R
TERRE HAUTE    CLOUDY    68  65  90 CALM      29.91S

$$

INZ030>032-037>040-046>048-054>057-064-065-191100-
CENTRAL INDIANA

CITY           SKY/WX    TMP DP  RH WIND       PRES   REMARKS
GREENWOOD *+   CLOUDY    68  63  85 CALM      29.94R
INDIANAPOLIS   MOCLDY    70  65  84 NW5       29.92R
-EAGLE CREEK   CLOUDY    71  64  78 CALM      29.91S
MT COMFORT *+  CLOUDY    66  64  94 CALM      29.93R
SHELBYVILLE    CLOUDY    68  64  87 S3        29.92R

$$

INZ033-034-041-042-049-050-058-059-191100-
EAST CENTRAL INDIANA

CITY           SKY/WX    TMP DP  RH WIND       PRES   REMARKS
MUNCIE         CLOUDY    71  62  73 W7        29.93R
RICHMOND +     LGT RAIN  64  63  94 CALM      29.95R

$$

INZ060-061-067>069-081>083-085>088-191100-
SOUTHWEST INDIANA

CITY           SKY/WX    TMP DP  RH WIND       PRES   REMARKS
EVANSVILLE     CLOUDY    72  66  81 CALM      29.94R
HUNTINGBURG +  CLOUDY    69  67  93 CALM      29.95R

$$

INZ062-063-066-070>080-084-089>092-191100-
SOUTH CENTRAL AND SOUTHEAST INDIANA

CITY           SKY/WX    TMP DP  RH WIND       PRES   REMARKS
BLOOMINGTON    CLOUDY    70  62  76 SW5       29.93F
MADISON *+     CLOUDY    68  64  88 CALM      29.98R

$$





USA.gov is the U.S. government's official web portal to all federal, state and local government web resources and services.